DECAYED

CZ-6A DEB, 61496 (Decayed)

Orbit data source: Space-Track

CZ-6A DEB, 61496 was space debris in LEO originally from a launch on Tue, 06 Aug 2024 UTC launched from the Taiyaun Space Center, China (TSC). Debris objects in space refer to the collection of defunct objects orbiting the Earth. Examples of debris include non-operational satellites, rocket bodies, and fragments generated from explosions, collisions, or faulty payload assembly.

Loading next visibility...
Identifier
61496, 2024-140ABE
Orbit
Decayed
Country
Flag of CNCN / PRC
Related business
Manufacturer
SAST
Mission
Decayed spacecraft
Bus & Motor
Unknown
Mass
Unknown
Launch date (UTC)
2024-08-06 (2 years ago)
Launch vehicle
Unknown
Launch site
Taiyaun Space Center, China (TSC)
Object type
Payload
Rocket body
Debris
Shape & HBR
Unknown shape, 0.1 m
Radar Cross Section
Small (<0.1 m²)

Expand to show TLE details & history
Last TLE update: 6 months ago

TLE from 6 months ago
0 CZ-6A DEB
1 61496U 24140ABE 25289.50005277  .05871293  48323-1  23333-1 0  9990
2 61496  88.9779 297.7095 0010086 193.2162 166.8860 15.91257329 59883
Epoch: 2025-10-16T12:00Z
TLE epoch observation values (Epoch: 2025-10-16T12:00:04.559Z)
Latitude
0.00004°
Longitude
92.43162°
Altitude
308.618 km
Speed
7.719 km/s
True Right ascension
19h 50m 50s
True Declination
0° 00' 00"
Sunlit
Object was in daylight at epoch
Visualization orbit readout
Latitude
Unknown
Longitude
Unknown
Altitude
Unknown
Speed
Unknown
Apparent Right ascension
Unknown
Apparent Declination
Unknown
Sunlit
N/A
Visualization observer readout
Local Sidereal Time
06:34:10
Azimuth
Unknown
Elevation
Unknown
Doppler factor
Unknown
Orbital elements
Apogee altitude
302.205 km
Perigee altitude
288.743 km
Semi-major axis
6,673.611 km
Eccentricity
0.00101
Inclination
88.9779°
RAAN
297.7095°
Arg. of periapsis
193.2162°
True anomaly
166.91219°
Mean anomaly
166.886°
Eccentric anomaly
166.8991°
Mean motion
3.98109 °/min
Orbital period
90.43 mins
BSTAR
0.023333
Loading maneuver chart data...
Computing Atmospheric mass density...
Loading historical data...
Loading historical data...
Loading historical data...
Loading historical data...
Loading historical data...
Loading historical data...
Loading historical data...

Documentation

Showing up to 5 results
|